Regional Weather Roundup
Issued by NWS

Home | Current Version | Previous Version | Graphics & Text | Print | Product List | Glossary Off
Versions: 1 2 3 4 5 6 7 8 9 10 11 12 13 14 15 16 17 18 19 20 21 22 23 24 25 26 27 28 29 30 31 32 33 34 35 36 37 38 39 40 41 42 43 44 45 46 47 48 49 50

000
ASUS43 KDTX 021201
RWRMI
MICHIGAN HOURLY REGIONAL WEATHER ROUNDUP
NATIONAL WEATHER SERVICE DETROIT/PONTIAC MI
700 AM EST FRI DEC 02 2016

NOTE: "FAIR" INDICATES FEW OR NO CLOUDS BELOW 12,000 FEET WITH NO
SIGNIFICANT WEATHER AND/OR OBSTRUCTION TO VISIBILITY.

MIZ047>049-052>055-059>063-066>070-074>076-081>083-021300-
SOUTHEAST LOWER MICHIGAN

CITY           SKY/WX    TMP DP  RH WIND       PRES   REMARKS
ADRIAN         CLOUDY    36  33  89 W8        30.02R WCI  30
6HR MIN TEMP:  34; 6HR MAX TEMP:  37;

ALMA           CLOUDY    35  32  88 W6        29.98R WCI  30
ANN ARBOR      CLOUDY    36  35  96 SW10      29.99R WCI  28
BAD AXE        CLOUDY    35  26  68 W13G21    29.93R WCI  26
CARO           CLOUDY    35  32  87 W7        29.95R WCI  29
DETROIT CITY   CLOUDY    39  35  86 W8        29.98R WCI  33
6HR MIN TEMP:  38; 6HR MAX TEMP:  40; 6HR PCP: TRACE;

DETROIT        LGT RAIN  38  35  89 W15       30.00R WCI  29
6HR MIN TEMP:  37; 6HR MAX TEMP:  39; 6HR PCP: TRACE;

FLINT          CLOUDY    37  33  85 W10       29.97R WCI  30
6HR MIN TEMP:  37; 6HR MAX TEMP:  39; 6HR PCP: TRACE;

GROSSE ILE     CLOUDY    37  33  85 W9G18     29.99R WCI  30
6HR MIN TEMP:  37; 6HR MAX TEMP:  39;

HILLSDALE      CLOUDY    34  32  93 SW12G17   29.99R WCI  25
HOWELL         CLOUDY    37  34  90 W6        29.97R WCI  32

CITY           SKY/WX    TMP DP  RH WIND       PRES   REMARKS
JACKSON        LGT RAIN  34  34 100 W8        30.00R FOG     WCI  27
6HR MIN TEMP:  34; 6HR MAX TEMP:  37; 6HR PCP:  0.08;

LAMBERTVILLE   CLOUDY    38  33  82 W5        30.03R WCI  34
6HR MIN TEMP:  37; 6HR MAX TEMP:  38;

LANSING        CLOUDY    37  32  82 W7        29.99R WCI  32
6HR MIN TEMP:  37; 6HR MAX TEMP:  38; 6HR PCP: TRACE;

LAPEER         NOT AVBL
MASON          CLOUDY    36  35  94 W7        29.99R WCI  31
MONROE         CLOUDY    37  34  90 SW14      30.00S WCI  28
6HR MIN TEMP:  35; 6HR MAX TEMP:  38;

MT. CLEMENS    CLOUDY    39  35  86 W10       29.94R WCI  32
6HR MIN TEMP:  39; 6HR MAX TEMP:  40;

PONTIAC        CLOUDY    36  32  85 W10       29.95R WCI  28
6HR MIN TEMP:  36; 6HR MAX TEMP:  38; 6HR PCP: TRACE;

PORT HOPE        N/A     37  27  67 W13G21    29.89R WCI  29
6HR MIN TEMP:  36; 6HR MAX TEMP:  39;

PORT HURON     CLOUDY    34  34 100 CALM      29.95R
TRI CITIES     CLOUDY    36  30  79 W12       29.97R WCI  28
6HR MIN TEMP:  36; 6HR MAX TEMP:  38; 6HR PCP: TRACE;

MIDLAND        CLOUDY    36  28  75 W6        29.96R WCI  31
6HR MIN TEMP:  36; 6HR MAX TEMP:  38;

TROY           CLOUDY    38  32  79 W8        29.98R WCI  32
SAGINAW HB     CLOUDY    36  32  87 W10       29.96R WCI  28
$$
MIZ043>046-050>051-056>058-064>065-071>073-077>080-021300-
SOUTHWEST LOWER MICHIGAN

CITY           SKY/WX    TMP DP  RH WIND       PRES   REMARKS
BATTLE CREEK   CLOUDY    36  35  96 W8        30.01R WCI  30
6HR MIN TEMP:  34; 6HR MAX TEMP:  37; 6HR PCP:  0.09;

BENTON HARBOR  LGT RAIN  39  31  72 W10G23    30.05R WCI  32
6HR MIN TEMP:  39; 6HR MAX TEMP:  41; 6HR PCP: TRACE;

BIG RAPIDS     CLOUDY    35  31  85 NW3       29.97R
6HR MIN TEMP:  35; 6HR MAX TEMP:  36;

COLDWATER      CLOUDY    36  33  88 W13       30.02R WCI  27
6HR MIN TEMP:  36; 6HR MAX TEMP:  37;

FREMONT        CLOUDY    35  24  63 NW9G16    30.00R WCI  28
HOLLAND        CLOUDY    39  32  76 W7        30.02R WCI  34
6HR MIN TEMP:  36; 6HR MAX TEMP:  42; 6HR PCP:  0.14;

GRAND RAPIDS   CLOUDY    37  29  72 W12       30.01R WCI  29
6HR MIN TEMP:  37; 6HR MAX TEMP:  39; 6HR PCP: TRACE;

IONIA          CLOUDY    36  30  79 W7        29.99R WCI  31
6HR MIN TEMP:  36; 6HR MAX TEMP:  37;

KALAMAZOO      CLOUDY    37  33  85 SW8       30.02R WCI  31
6HR MIN TEMP:  37; 6HR MAX TEMP:  38; 6HR PCP: TRACE;

LUDINGTON      CLOUDY    35  26  69 NW8       30.01R WCI  29
6HR MIN TEMP:  35; 6HR MAX TEMP:  38;

MARSHALL       CLOUDY    36  35  97 W8        30.00R WCI  29
6HR MIN TEMP:  36; 6HR MAX TEMP:  37; 6HR PCP:  0.01;

MOUNT PLEASANT CLOUDY    34  30  85 W6        29.97R WCI  29
6HR MIN TEMP:  34; 6HR MAX TEMP:  37;

MUSKEGON       CLOUDY    39  25  57 NW12G23   30.02R WCI  32
6HR MIN TEMP:  39; 6HR MAX TEMP:  42; 6HR PCP: TRACE;

SOUTH HAVEN    CLOUDY    41  32  72 NW9G17    30.03R
$$
MIZ016>042-021300-
NORTHERN LOWER MICHIGAN

CITY           SKY/WX    TMP DP  RH WIND       PRES   REMARKS
ALPENA         CLOUDY    35  28  75 W10       29.86R WCI  27
6HR MIN TEMP:  34; 6HR MAX TEMP:  36;

BEAVER ISLAND  CLOUDY    34  30  86 W15G21    29.93R WCI  24
BELLAIRE       LGT SNOW  34  32  92 CALM      29.95R
6HR MIN TEMP:  33; 6HR MAX TEMP:  35;

CADILLAC       CLOUDY    31  28  90 W9        29.94R WCI  23
CHARLEVOIX     CLOUDY    36  31  81 W16G24    29.95R WCI  26
FRANKFORT      CLOUDY    34  29  82 NW10G17   29.99R WCI  26
GAYLORD        LGT SNOW  32  28  85 W8G17     29.88R FOG     WCI  25
6HR MIN TEMP:  32; 6HR MAX TEMP:  33; 6HR PCP: TRACE;

GRAYLING       CLOUDY    32  29  90 W9        29.92R WCI  24
6HR MIN TEMP:  32; 6HR MAX TEMP:  33;

HARBOR SPRINGS LGT SNOW  34  32  93 W13G18    29.91R WCI  25
HOUGHTON LAKE  CLOUDY    32  27  81 W13       29.93R WCI  22
6HR MIN TEMP:  32; 6HR MAX TEMP:  34;

MANISTEE       CLOUDY    35  25  66 NW10      30.00R WCI  27
OSCODA         CLOUDY    35  28  76 MISG      29.90R
6HR MIN TEMP:  31; 6HR MAX TEMP:  36;

PELLSTON       CLOUDY    35  30  82 W12       29.90R WCI  27
6HR MIN TEMP:  34; 6HR MAX TEMP:  36; 6HR PCP:  0.01;

ROGERS CITY    FLURRIES  35  31  85 W15G22    29.86S WCI  26
TRAVERSE CITY  FLURRIES  35  29  78 W7        29.96R WCI  29
6HR MIN TEMP:  34; 6HR MAX TEMP:  36; 6HR PCP: TRACE;

$$
MIZ007>008-015-021300-
EASTERN UPPER MICHIGAN

CITY           SKY/WX    TMP DP  RH WIND       PRES   REMARKS
KINROSS        FLURRIES N/A N/A N/A W12       29.84R
6HR MIN TEMP:  32; 6HR MAX TEMP:  33; 6HR PCP:  0.01;

MACKINAC ISLAN CLOUDY    34  34 100 W15G25    29.87R WCI  24
6HR MIN TEMP:  33; 6HR MAX TEMP:  34;

NEWBERRY       LGT SNOW  32  32  99 W7        29.88R WCI  26
6HR MIN TEMP:  32; 6HR MAX TEMP:  32;

S. S. MARIE    CLOUDY    36  33  89 NW12G20   29.82R WCI  28
6HR MIN TEMP:  34; 6HR MAX TEMP:  36; 6HR PCP:  0.08;

MUNISING         N/A     36  34  92 NW18G30   29.94R WCI  26
6HR MIN TEMP:  34; 6HR MAX TEMP:  36; 6HR PCP:  0.07;

$$
MIZ004>006-011>014-085-021300-
CENTRAL UPPER MICHIGAN

CITY           SKY/WX    TMP DP  RH WIND       PRES   REMARKS
MANISTIQUE     CLOUDY    31  27  84 W10       29.93R WCI  22
6HR MIN TEMP:  30; 6HR MAX TEMP:  32;

ESCANABA       PTCLDY    30  25  81 W9        29.99R WCI  22
6HR MIN TEMP:  30; 6HR MAX TEMP:  32;

MENOMINEE      MOCLDY    30  23  75 NW6       30.03R WCI  24
6HR MIN TEMP:  29; 6HR MAX TEMP:  34;

SAWYER-GWINN   CLOUDY    28  27  93 NW10      29.96R WCI  19
$$
MIZ001>003-009>011-084-021300-
WESTERN UPPER MICHIGAN

CITY           SKY/WX    TMP DP  RH WIND       PRES   REMARKS
IRON MOUNTAIN  CLOUDY    29  22  75 NW14      29.99R WCI  18
6HR MIN TEMP:  27; 6HR MAX TEMP:  30;

HOUGHTON       LGT SNOW  30  27  88 NW14      29.99R FOG     WCI  19
6HR MIN TEMP:  29; 6HR MAX TEMP:  30; 6HR PCP: TRACE;

COPPER HARBOR    N/A     34  32  92 N18G29    29.98R WCI  23
6HR MIN TEMP:  33; 6HR MAX TEMP:  35; 6HR PCP:  0.01;

IRONWOOD       CLOUDY    28  26  92 W8        30.06R WCI  20
6HR MIN TEMP:  28; 6HR MAX TEMP:  28; 6HR PCP:  0.01;

$$

ABBREVIATIONS USED IN REMARKS
   TC - TEMPERATURE IN CELSIUS
  WCI - WIND CHILL INDEX
   HX - HEAT INDEX
  VSB - VISIBILITY





USA.gov is the U.S. government's official web portal to all federal, state and local government web resources and services.